Location: Waco, TX
(31.5480°N, 97.1670°W)
Time: 03:09:36
(UTC-05:00)

ISS - Pass Details

Date: 19 September 2017
Orbit: 401 x 407 km, 51.6° (Epoch: 22 September)

Event Time Altitude Azimuth Distance (km) Brightness Sun altitude
Rises 05:47:12 0° 329° (NNW) 2,329 - -19.4°
Exits shadow 05:49:02 - 341° (NNW) 1,674 -0.8 -19.0°
Reaches altitude 10° 05:49:41 10° 347° (NNW) 1,466 -1.0 -18.9°
Maximum altitude 05:52:10 20° 37° (NE) 1,019 -1.2 -18.4°
Drops below altitude 10° 05:54:39 10° 86° (E) 1,461 0.2 -17.8°
Sets 05:57:06 0° 104° (ESE) 2,318 1.2 -17.3°
